TimeEST,TemperatureF,Dew PointF,Humidity,Sea Level PressureIn,VisibilityMPH,Wind Direction,Wind SpeedMPH,Gust SpeedMPH,PrecipitationIn,Events,Conditions,WindDirDegrees,DateUTC
12:53 AM,66.9,64.0,90,29.92,10.0,SSW,11.5,-,N/A,,Clear,210,2013-02-08 05:53:00
1:53 AM,66.9,64.0,90,29.93,10.0,West,8.1,-,N/A,,Clear,260,2013-02-08 06:53:00
2:53 AM,66.9,64.0,90,29.92,10.0,WSW,10.4,-,N/A,,Clear,250,2013-02-08 07:53:00
3:53 AM,66.9,64.9,93,29.93,10.0,West,10.4,-,N/A,,Scattered Clouds,270,2013-02-08 08:53:00
4:20 AM,66.2,64.4,94,29.93,10.0,West,9.2,-,N/A,,Mostly Cloudy,270,2013-02-08 09:20:00
4:53 AM,66.0,64.0,93,29.94,10.0,WNW,8.1,-,N/A,,Mostly Cloudy,300,2013-02-08 09:53:00
5:09 AM,66.2,64.4,94,29.95,10.0,WNW,6.9,-,N/A,,Overcast,300,2013-02-08 10:09:00
5:53 AM,64.0,62.1,93,29.96,10.0,NW,8.1,-,N/A,,Mostly Cloudy,310,2013-02-08 10:53:00
6:27 AM,64.4,60.8,88,29.98,10.0,NW,8.1,-,N/A,,Overcast,320,2013-02-08 11:27:00
6:53 AM,62.6,60.8,94,29.99,10.0,NNW,10.4,-,N/A,,Mostly Cloudy,330,2013-02-08 11:53:00
7:15 AM,62.6,59.0,88,30.00,10.0,NW,9.2,-,N/A,,Scattered Clouds,320,2013-02-08 12:15:00
7:46 AM,62.6,59.0,88,30.01,10.0,NNW,6.9,-,N/A,,Mostly Cloudy,330,2013-02-08 12:46:00
7:53 AM,63.0,59.0,87,30.01,10.0,NNW,6.9,-,N/A,,Mostly Cloudy,340,2013-02-08 12:53:00
8:31 AM,62.6,59.0,88,30.02,10.0,NW,6.9,-,N/A,,Scattered Clouds,310,2013-02-08 13:31:00
8:53 AM,63.0,57.9,84,30.03,10.0,NNW,6.9,-,N/A,,Scattered Clouds,330,2013-02-08 13:53:00
9:53 AM,66.0,57.9,75,30.04,10.0,WNW,8.1,-,N/A,,Partly Cloudy,300,2013-02-08 14:53:00
10:53 AM,69.1,59.0,70,30.05,10.0,WSW,6.9,-,N/A,,Partly Cloudy,250,2013-02-08 15:53:00
11:53 AM,75.0,59.0,57,30.04,10.0,WNW,8.1,25.3,N/A,,Clear,300,2013-02-08 16:53:00
12:53 PM,77.0,57.0,50,30.02,10.0,WNW,11.5,-,N/A,,Clear,300,2013-02-08 17:53:00
1:53 PM,75.9,55.9,50,30.01,10.0,WNW,13.8,-,N/A,,Clear,290,2013-02-08 18:53:00
2:53 PM,73.9,57.0,55,30.01,10.0,NW,11.5,-,N/A,,Clear,320,2013-02-08 19:53:00
3:53 PM,72.0,59.0,64,30.01,10.0,West,10.4,-,N/A,,Clear,280,2013-02-08 20:53:00
4:53 PM,70.0,57.9,65,30.01,10.0,NNW,10.4,-,N/A,,Partly Cloudy,330,2013-02-08 21:53:00
5:53 PM,64.0,57.0,78,30.03,10.0,NW,10.4,-,N/A,,Partly Cloudy,310,2013-02-08 22:53:00
6:35 PM,60.8,55.4,82,30.04,10.0,NW,9.2,-,N/A,,Mostly Cloudy,320,2013-02-08 23:35:00
6:53 PM,61.0,55.9,83,30.05,10.0,NNW,13.8,-,N/A,,Overcast,330,2013-02-08 23:53:00
7:41 PM,60.8,55.4,82,30.07,10.0,NW,9.2,-,N/A,,Scattered Clouds,320,2013-02-09 00:41:00
7:53 PM,60.1,55.0,83,30.06,10.0,NNW,8.1,-,N/A,,Partly Cloudy,330,2013-02-09 00:53:00
8:53 PM,59.0,55.0,87,30.09,10.0,NW,4.6,-,N/A,,Clear,320,2013-02-09 01:53:00
9:53 PM,57.9,55.0,90,30.10,10.0,North,3.5,-,N/A,,Clear,350,2013-02-09 02:53:00
10:53 PM,57.9,55.0,90,30.11,10.0,North,4.6,-,N/A,,Clear,350,2013-02-09 03:53:00
11:53 PM,57.0,55.0,93,30.10,10.0,North,3.5,-,N/A,,Clear,360,2013-02-09 04:53:00